When you browse on this site, cookies collect data to enhance your experience and personalize the content and advertising you see.
Visit our Privacy Policy to learn more. By continuing to use the site, you agree to this use of cookies and data.
  • In Austria
  • List of Countries
  • For 7 days
  • Water Temperature
  • Satellite Maps
  • Weather Map
  • News
  • Weather Widgets
  • user-avatar
    Login

    Hourly Weather Chetumal

    Today, 12 December, Wednesday

    Time Temperature Precipitation Wind Pressure Humidity
    00:00 +17°C° 0 mm 2 mps 765 mmHg 83%
    01:00 +17°C° 0 mm 2 mps 764 mmHg 84%
    02:00 +17°C° 0 mm 2 mps 764 mmHg 86%
    03:00 +16°C° 0 mm 2 mps 764 mmHg 87%
    04:00 +16°C° 0 mm 2 mps 764 mmHg 87%
    05:00 +16°C° 0 mm 2 mps 764 mmHg 88%
    06:00 +15°C° 0 mm 2 mps 764 mmHg 88%
    07:00 +18°C° 0 mm 2 mps 764 mmHg 81%
    08:00 +20°C° 0 mm 2 mps 764 mmHg 73%
    09:00 +23°C° 0 mm 2 mps 765 mmHg 66%
    10:00 +25°C° 0 mm 2 mps 764 mmHg 62%
    11:00 +26°C° 0 mm 2 mps 764 mmHg 57%
    12:00 +28°C° 0 mm 2 mps 763 mmHg 53%
    13:00 +28°C° 0 mm 2 mps 762 mmHg 55%
    14:00 +28°C° 0 mm 2 mps 762 mmHg 56%
    15:00 +28°C° 0 mm 2 mps 761 mmHg 57%
    16:00 +27°C° 0 mm 2 mps 761 mmHg 64%
    17:00 +25°C° 0 mm 2 mps 761 mmHg 72%
    18:00 +24°C° 0 mm 2 mps 761 mmHg 79%
    19:00 +23°C° 0 mm 2 mps 761 mmHg 83%
    20:00 +23°C° 0 mm 2 mps 761 mmHg 86%
    21:00 +21°C° 0 mm 2 mps 761 mmHg 90%
    22:00 +21°C° 0.1 mm 2 mps 761 mmHg 91%
    23:00 +21°C° 0.1 mm 2 mps 761 mmHg 92%

    Tomorrow, 13 December, Thursday

    Time Temperature Precipitation Wind Pressure Humidity
    00:00 +21°C° 0.1 mm 2 mps 761 mmHg 93%
    01:00 +21°C° 0.2 mm 2 mps 760 mmHg 95%
    02:00 +21°C° 0.2 mm 2 mps 760 mmHg 96%
    03:00 +21°C° 0.2 mm 2 mps 759 mmHg 97%
    04:00 +21°C° 0.1 mm 2 mps 759 mmHg 96%
    05:00 +23°C° 0.1 mm 2 mps 759 mmHg 95%
    06:00 +23°C° 0.1 mm 2 mps 759 mmHg 94%
    07:00 +24°C° 0 mm 2 mps 760 mmHg 90%
    08:00 +26°C° 0 mm 2 mps 760 mmHg 87%
    09:00 +27°C° 0 mm 2 mps 761 mmHg 83%
    10:00 +28°C° 0 mm 2 mps 760 mmHg 76%
    11:00 +30°C° 0 mm 3 mps 759 mmHg 68%
    12:00 +33°C° 0 mm 3 mps 759 mmHg 61%
    13:00 +33°C° 0 mm 3 mps 758 mmHg 61%
    14:00 +33°C° 0 mm 3 mps 758 mmHg 62%
    15:00 +31°C° 0 mm 3 mps 757 mmHg 62%
    16:00 +29°C° 0 mm 3 mps 757 mmHg 71%
    17:00 +28°C° 0 mm 2 mps 758 mmHg 80%
    18:00 +26°C° 0 mm 2 mps 758 mmHg 89%
    19:00 +25°C° 0 mm 2 mps 758 mmHg 92%
    20:00 +25°C° 0 mm 2 mps 759 mmHg 95%
    21:00 +24°C° 0 mm 2 mps 759 mmHg 97%
    22:00 +24°C° 0 mm 2 mps 759 mmHg 97%
    23:00 +24°C° 0 mm 2 mps 759 mmHg 98%

    Day after tomorrow, 14 December, Friday

    Time Temperature Precipitation Wind Pressure Humidity
    00:00 +24°C° 0 mm 2 mps 759 mmHg 98%
    01:00 +24°C° 0 mm 2 mps 759 mmHg 98%
    02:00 +24°C° 0 mm 1 mps 759 mmHg 98%
    03:00 +24°C° 0 mm 1 mps 758 mmHg 98%
    04:00 +24°C° 0.1 mm 1 mps 759 mmHg 98%
    05:00 +23°C° 0.1 mm 1 mps 759 mmHg 98%
    06:00 +23°C° 0.1 mm 1 mps 759 mmHg 98%
    07:00 +24°C° 0.8 mm 1 mps 760 mmHg 97%
    08:00 +25°C° 0.8 mm 1 mps 761 mmHg 95%
    09:00 +26°C° 0.8 mm 1 mps 761 mmHg 94%
    10:00 +27°C° 0.9 mm 2 mps 761 mmHg 89%
    11:00 +28°C° 0.9 mm 2 mps 761 mmHg 83%
    12:00 +29°C° 0.9 mm 2 mps 761 mmHg 78%
    13:00 +28°C° 1.4 mm 3 mps 760 mmHg 80%
    14:00 +27°C° 1.4 mm 3 mps 760 mmHg 83%
    15:00 +27°C° 1.4 mm 3 mps 760 mmHg 86%
    16:00 +26°C° 0.4 mm 4 mps 760 mmHg 85%
    17:00 +25°C° 0.4 mm 4 mps 761 mmHg 84%
    18:00 +23°C° 0.4 mm 4 mps 761 mmHg 83%
    19:00 +22°C° 0 mm 4 mps 762 mmHg 82%
    20:00 +21°C° 0 mm 4 mps 763 mmHg 81%
    21:00 +21°C° 0 mm 4 mps 764 mmHg 80%
    22:00 +20°C° 0 mm 4 mps 764 mmHg 79%
    23:00 +20°C° 0 mm 4 mps 764 mmHg 78%

    15 December, Saturday

    Time Temperature Precipitation Wind Pressure Humidity
    00:00 +19°C° 0 mm 4 mps 764 mmHg 78%
    01:00 +19°C° 0 mm 3 mps 764 mmHg 76%
    02:00 +19°C° 0 mm 3 mps 764 mmHg 74%
    03:00 +19°C° 0 mm 3 mps 764 mmHg 72%
    04:00 +19°C° 0 mm 3 mps 764 mmHg 72%
    05:00 +19°C° 0 mm 3 mps 764 mmHg 72%
    06:00 +19°C° 0 mm 3 mps 765 mmHg 73%
    07:00 +20°C° 0 mm 3 mps 765 mmHg 69%
    08:00 +21°C° 0 mm 3 mps 766 mmHg 66%
    09:00 +22°C° 0 mm 4 mps 766 mmHg 63%
    10:00 +24°C° 0 mm 3 mps 766 mmHg 58%
    11:00 +26°C° 0 mm 3 mps 765 mmHg 54%
    12:00 +27°C° 0 mm 3 mps 765 mmHg 49%
    13:00 +27°C° 0 mm 3 mps 764 mmHg 48%
    14:00 +28°C° 0 mm 2 mps 763 mmHg 47%
    15:00 +28°C° 0 mm 2 mps 763 mmHg 46%
    16:00 +26°C° 0 mm 2 mps 763 mmHg 53%
    17:00 +24°C° 0 mm 1 mps 763 mmHg 60%
    18:00 +23°C° 0 mm 1 mps 764 mmHg 67%
    19:00 +22°C° 0 mm 1 mps 764 mmHg 69%
    20:00 +22°C° 0 mm 1 mps 765 mmHg 70%
    21:00 +22°C° 0 mm 1 mps 765 mmHg 71%
    22:00 +21°C° 0 mm 1 mps 765 mmHg 74%
    23:00 +19°C° 0 mm 2 mps 765 mmHg 77%

    16 December, Sunday

    Time Temperature Precipitation Wind Pressure Humidity
    00:00 +19°C° 0 mm 2 mps 765 mmHg 80%
    01:00 +18°C° 0 mm 2 mps 765 mmHg 81%
    02:00 +17°C° 0 mm 2 mps 765 mmHg 83%
    03:00 +17°C° 0 mm 2 mps 764 mmHg 84%
    04:00 +17°C° 0 mm 2 mps 765 mmHg 85%
    05:00 +16°C° 0 mm 2 mps 765 mmHg 86%
    06:00 +16°C° 0 mm 2 mps 765 mmHg 86%
    07:00 +18°C° 0 mm 2 mps 766 mmHg 79%
    08:00 +20°C° 0 mm 2 mps 766 mmHg 72%
    09:00 +22°C° 0 mm 3 mps 767 mmHg 65%
    10:00 +24°C° 0 mm 3 mps 766 mmHg 59%
    11:00 +26°C° 0 mm 2 mps 765 mmHg 54%
    12:00 +27°C° 0 mm 2 mps 765 mmHg 48%
    13:00 +28°C° 0 mm 2 mps 764 mmHg 47%
    14:00 +28°C° 0 mm 2 mps 763 mmHg 47%
    15:00 +28°C° 0 mm 2 mps 763 mmHg 47%
    16:00 +26°C° 0 mm 2 mps 763 mmHg 54%
    17:00 +24°C° 0 mm 2 mps 764 mmHg 61%
    18:00 +23°C° 0 mm 1 mps 764 mmHg 68%
    19:00 +22°C° 0 mm 1 mps 764 mmHg 69%
    20:00 +22°C° 0 mm 1 mps 765 mmHg 70%
    21:00 +21°C° 0 mm 1 mps 765 mmHg 71%
    22:00 +20°C° 0 mm 2 mps 765 mmHg 74%
    23:00 +19°C° 0 mm 2 mps 765 mmHg 77%

    17 December, Monday

    Time Temperature Precipitation Wind Pressure Humidity
    00:00 +19°C° 0 mm 2 mps 765 mmHg 80%
    01:00 +18°C° 0 mm 3 mps 764 mmHg 80%
    02:00 +18°C° 0 mm 3 mps 764 mmHg 81%
    03:00 +18°C° 0 mm 3 mps 764 mmHg 81%
    04:00 +17°C° 0 mm 3 mps 764 mmHg 82%
    05:00 +17°C° 0 mm 3 mps 765 mmHg 83%
    06:00 +17°C° 0 mm 3 mps 765 mmHg 83%
    07:00 +18°C° 0 mm 3 mps 766 mmHg 77%
    08:00 +20°C° 0 mm 3 mps 766 mmHg 70%
    09:00 +22°C° 0 mm 3 mps 766 mmHg 64%
    10:00 +24°C° 0 mm 3 mps 766 mmHg 59%
    11:00 +26°C° 0 mm 3 mps 765 mmHg 53%
    12:00 +28°C° 0 mm 3 mps 764 mmHg 48%
    13:00 +28°C° 0 mm 2 mps 764 mmHg 48%
    14:00 +28°C° 0 mm 2 mps 763 mmHg 47%
    15:00 +29°C° 0 mm 2 mps 762 mmHg 47%
    16:00 +27°C° 0 mm 2 mps 763 mmHg 54%
    17:00 +25°C° 0 mm 1 mps 763 mmHg 60%
    18:00 +23°C° 0 mm 1 mps 763 mmHg 67%
    19:00 +23°C° 0 mm 1 mps 764 mmHg 68%
    20:00 +23°C° 0 mm 1 mps 764 mmHg 69%
    21:00 +23°C° 0 mm 2 mps 764 mmHg 71%
    22:00 +21°C° 0 mm 2 mps 764 mmHg 77%
    23:00 +20°C° 0 mm 2 mps 764 mmHg 82%
    Show more